Other Surface Observations
Issued by NWS

Home | Current Version | Previous Version | Text Only | Print | Product List | Glossary On
Versions: 1 2 3 4 5 6 7 8 9 10 11 12 13 14 15 16 17 18 19 20 21 22 23 24 25 26 27 28 29 30 31 32 33 34 35 36 37 38 39 40 41 42 43 44 45 46 47 48 49 50
000
SXUS52 KTAE 300918
OSOTAE
OSOTAE
North Florida/South Alabama/Southwest Georgia Weather Roundup
National Weather Service Tallahassee Florida
500 AM EDT TUE JUN 30 2015

Note: "fair" indicates few or no clouds below 12,000 feet with no
significant weather and/or obstructions to visibility.

!FLZ017-115-028-034-025-301000
...North Florida...

CITY           SKY/WX    TMP DP  RH WIND       PRES   REMARKS
TALLAHASSEE    CLEAR     75  73  93 CALM      30.05R
APALACHICOLA   CLEAR     83  76  79 W9        30.05F HX  91
PERRY            N/A     74  74 100 SW3       30.05S
CROSS CITY       N/A     75  72  90 CALM      30.05S
JACKSONVILLE   PTCLDY    71  71 100 CALM      30.02F FOG
$$

!FLZ112-006-005-002-011-301000
...Florida Panhandle...

CITY           SKY/WX    TMP DP  RH WIND       PRES   REMARKS
MARIANNA       CLEAR     75  75 100 S6        30.03S
BONIFAY        FAIR      73  73 100 CALM      30.04S
PANAMA CITY NW FAIR      80  76  87 SW7       30.03F
TYNDALL AFB    CLEAR     82  76  82 W13       30.04F
TYND DRONE APT FAIR      82  77  83 SW6       30.04S HX  91
DE FUNIAK SPR  FAIR      73  72  97 CALM      30.05S
EGLIN AFB      PTCLDY    81  76  83 SW5       30.03S
DESTIN         PTCLDY    82  77  84 W6        30.03S HX  90
HURLBURT       MOCLDY    82  76  82 SW10      30.02S
CRESTVIEW      CLEAR     74  72  93 CALM      30.04F
PENSACOLA      MOCLDY    80  76  87 W10       30.03S
$$

!ALZ063-066-301000
...South Alabama...

CITY           SKY/WX    TMP DP  RH WIND       PRES   REMARKS
DOTHAN         CLEAR     74  72  93 SW6       30.07S
OZARK CAIRNS   CLEAR     73  72  96 SW5       30.03S
FT RUCKER HELI CLEAR     71  70  96 CALM      30.02S
RUCKER HELI 3  FAIR      74  71  92 SW6       30.05R
RUCKER HELI 2  FAIR      71 N/A N/A SW3       30.03S
FLORALA APT    CLEAR     73  71  93 S3        30.05S
ANDALUSIA      CLEAR     76  70  82 CALM      30.03S
TROY           CLEAR     71  69  93 SW3       30.03S
EUFALA         FAIR      72  70  93 SW3       30.01S
MOBILE         PTCLDY    77  76  96 SW7       30.04S
$$

!GAZ120>161-301000
...Southwest and South Central Georgia...

CITY           SKY/WX    TMP DP  RH WIND       PRES   REMARKS
THOMASVILLE    FAIR      73  73 100 W6        30.05S
BAINBRIDGE     CLEAR     77  75  94 CALM      30.04S FOG
MOODY AFB      CLEAR     75  72  90 SW6       30.02S
VALDOSTA       CLEAR     72  71  97 CALM      30.04S
MOULTRIE       CLEAR     73  72  94 SW5       30.04F FOG
BLAKELY        CLEAR     73  73 100 CALM      30.03S
ALBANY         CLEAR     74  72  93 SW5       30.04F
TIFTON         FAIR      73  71  94 CALM      30.03S
FITZGERALD     FAIR      74  73  95 CALM      30.05S
CORDELE        FAIR      75  74  94 SW3       30.03F
AMERICUS       FAIR      72  72 100 SW3       30.04S
HOMERVILLE     FAIR      73  73 100 CALM      30.03S
$$

!GMZ750-755-770-775-301000
...Coastal and Buoy Obs...

STATION/POSITION TIME  TEMP    WIND        PRES    VSBY  WAVE
                       AIR SEA DIR/SP/G                  HT/PER
                 (UTC) (F)     (DEG/KT/KT) (MB)    (MI)  (FT/S)
KEATON BEACH     0900   81     270/ 13/ 15 1017.5F
CEDAR KEY        0900   83     270/  8/ 11 1018.3R
C TOWER          0900   81     250/ 14/ 16 1017.9F
APALACHICOLA BUO 0850   83 85  230/ 14/ 16 1018.1S         3/ 5
PANAMA CITY BUOY 0850   83 83  240/ 14/ 16 1018.2F         3/ 5
MOBILE BUOY      0850   83 83  250/ 14/ 16 1018.5R         2/ 4
ORANGE BCH AL BU 0850   83 84  240/ 16/ 17 1016.4S         3/ 4
$$



USA.gov is the U.S. government's official web portal to all federal, state and local government web resources and services.